Tracking 29892 objects as of 21-Nov-2024
HD Live streaming from Space Station
objects crossing your sky now

STARLINK-5898

Track STARLINK-5898 now!
10-day predictions
STARLINK-5898 is classified as:


NORAD ID: 55929
Int'l Code: 2023-037R
Perigee: 576.9 km
Apogee: 581.3 km
Inclination: 70.0 °
Period: 96.1 minutes
Semi major axis: 6950 km
RCS: Unknown
Launch date: March 17, 2023
Source: United States (US)
Launch site: AIR FORCE WESTERN TEST RANGE (AFWTR)
Your satellite tracking list
Your tracking list is empty




NASA's NSSDC Master Catalog

Two Line Element Set (TLE):
1 55929U 23037R   24324.71479426  .00001275  00000-0  11454-3 0  9993
2 55929  70.0000  61.9112 0003166 271.2594  88.8202 14.98347431 92345
Source of the keplerian elements: AFSPC